星链-33573 (STARLINK-33573)

导读 | 星芒AI

STARLINK-33573 是 SpaceX Starlink 卫星互联网项目中的一颗低轨卫星,属于第6批部署的星链卫星之一。该卫星于2022年发射,运行在约550公里高度的近地轨道,旨在为全球用户提供高速互联网服务。作为星链星座的一部分,它通过与其他卫星协同工作,实现低延迟、广覆盖的通信能力。该卫星采用可再生太阳能供电,并具备自主避障功能,以减少与空间碎片的碰撞风险。

基本信息
目录编号:
62778
目录名称:
STARLINK-33573
国际标识:
2025-015W
轨道中心:
EARTH
卫星名称:
星链-33573
卫星全名:
星链-33573 (STARLINK-33573)
卫星状态:
在轨 (已飞行290 天)
发射日期:
2025-01-21 UTC
国别 :
美国 (US)
星等 :
--
轨道信息
数据来源 国际轨道数据
星历时间: 2025-11-07T11:38:05+0800
19小时前
查看轨道信息
半长轴: 6853.417km
偏心率: 0.0000703
轨道倾角: 53.159°
近地点辐角 61.016°
升交点赤经 171.371°
平近点角 299.091°
近地点: 474.8km
远地点: 475.764km
周期: 94.107分钟
每日圈数: 15.301785
详细信息
固有亮度:
5
最大亮度:
2.5
卫星平台:
Starlink V1.0
覆盖范围:
全球
运营商:
太空探索技术公司
运营商所在国:
美国
制造商(研发单位):
太空探索技术公司
制造商所在国:
美国
使用方式:
暂无
卫星简介
Starlink 计划是 SpaceX 推出的全球卫星互联网项目,通过发射低轨道卫星,为全球尤其是偏远地区提供高速、低延迟的互联网服务。自 2019 年起,Starlink 已部署数千颗卫星,旨在缩小全球数字鸿沟,推动互联网普及。该项目还为军事、航空等行业提供通信支持,带来广泛经济效益。
2D轨道图
3D轨道图
轨道高度分析图
轨道倾角分析图
轨道综合分析图
查看轨道综合分析图